Home > Weather > Kãnpur > Past weeks

Flag for India Past Weather in Kãnpur, Uttar Pradesh, India — Yesterday and Last 2 Weeks

Now
82 °F

Broken clouds.


Feels Like: 96 °F
Forecast: 79 / 90 °F
Wind: 2 mph from North

Location: Lucknow / Amausi

Current Time: Jul 28, 2016 at 8:31:40 AM

Latest Report: Jul 28, 2016 at 7:30 AM


Visibility: 2 mi

Pressure: 29.65 "Hg

Humidity: 100%

Dew Point: 82 °F

Location of KãnpurLocation

Past Weather in Kãnpur — Graph

°F

Kãnpur Temperature Yesterday

Maximum temperature yesterday: 91 °F (at 1:30 PM)
Minimum temperature yesterday: 81 °F (at 1:00 AM)
Average temperature yesterday: 85 °F

High & Low Weather Summary for the Past Weeks

 TemperatureHumidityPressure
High99 °F (Jul 14, 3:00 PM)100% (Jul 13, 10:00 PM)29.71 "Hg (Jul 13, 10:00 PM)
Low79 °F (Jul 19, 5:00 AM)46% (Jul 19, 4:00 PM)29.39 "Hg (Jul 14, 4:30 PM)
Average86 °F89%29.54 "Hg
* Reported Jul 13 6:30 AM — Jul 28 7:00 AM, Kãnpur, Weather by CustomWeather, © 2016

Note: Actual official high and low records may vary slightly from our data, if they occured in-between our weather recording intervals... More about our weather records

Advertising

Kãnpur Weather History for the Previous 24 Hours

Scroll right to see more
 ConditionsComfort  
Time TempWeatherWind HumidityBarometerVisibility
7:00 AM
Thu, Jul 28
82 °FFog.2 mph94%29.65 "Hg2 mi
6:30 AM82 °FFog.No wind94%29.65 "Hg1 mi
5:00 AM81 °FPartly cloudy.No wind100%29.62 "Hg2 mi
4:00 AM81 °FPartly cloudy.No wind100%29.62 "Hg2 mi
3:00 AM81 °FPartly cloudy.3 mph100%29.62 "Hg2 mi
10:00 PM
Wed, Jul 27
82 °FPartly cloudy.No wind100%29.68 "Hg2 mi
9:00 PM84 °FPartly cloudy.No wind94%29.65 "Hg2 mi
8:30 PM82 °FPartly cloudy.No wind100%29.62 "Hg2 mi
8:00 PM82 °FPartly cloudy.No wind94%29.62 "Hg2 mi
7:30 PM84 °FPartly cloudy.No wind89%29.62 "Hg2 mi
7:00 PM84 °FBroken clouds.5 mph89%29.62 "Hg2 mi
6:00 PM86 °FBroken clouds.6 mph84%29.62 "Hg2 mi
4:30 PM88 °FBroken clouds.9 mph79%29.59 "Hg2 mi
4:00 PM90 °FBroken clouds.6 mph75%29.59 "Hg2 mi
3:30 PM90 °FBroken clouds.8 mph75%29.62 "Hg2 mi
3:00 PM91 °FBroken clouds.8 mph71%29.62 "Hg2 mi
2:30 PM91 °FBroken clouds.9 mph75%29.62 "Hg2 mi
2:00 PM91 °FBroken clouds.7 mph71%29.62 "Hg2 mi
1:30 PM91 °FBroken clouds.9 mph75%29.65 "Hg2 mi
12:30 PM90 °FBroken clouds.9 mph79%29.65 "Hg2 mi
11:30 AM88 °FBroken clouds.9 mph84%29.68 "Hg2 mi
11:00 AM88 °FBroken clouds.9 mph79%29.68 "Hg2 mi
10:30 AM86 °FBroken clouds.7 mph84%29.68 "Hg2 mi
10:00 AM86 °FBroken clouds.9 mph84%29.68 "Hg2 mi
9:30 AM86 °FBroken clouds.7 mph89%29.68 "Hg2 mi
8:30 AM82 °FBroken clouds.7 mph94%29.68 "Hg2 mi
Weather by CustomWeather, © 2016

See weather overviewHow to use our weather pages